Location: Colorado Springs
(38.8340°N, 104.8210°W)
Time: 20:03:57
(UTC-06:00)

Tiangong 2 - Pass Details

Date: 07 October 2017
Orbit: 388 x 391 km, 42.8° (Epoch: 23 October)

Event Time Altitude Azimuth Distance (km) Brightness Sun altitude
Exits shadow 06:17:37 - 228° (SW) 1,631 3.8 -9.3°
Reaches altitude 10° 06:18:09 10° 226° (SW) 1,415 3.5 -9.2°
Maximum altitude 06:21:13 45° 152° (SSE) 545 2.1 -8.6°
Drops below altitude 10° 06:24:18 10° 78° (ENE) 1,423 5.5 -8.0°
Sets 06:26:26 0° 72° (ENE) 2,281 6.6 -7.6°
